Погода в Бахте

Погода в Бахте : погода сейчас, прогноз погоды и архив. Всё, что Вы хотите узнать о погоде в Бахте!

Поиск расширенной информации на нашем сайте:

Другие новости

Новости СМИ2

Главная страница сайта

Новости сайта

03.07.2017

Напоминаем, что на нашем специализированном сайте Метеоцентр.Азия вы можете получить высокодетализированные автоматические прогнозы погоды по пунктам России, СНГ и мира в авиационном формате (включающие направление и скорость ветра, видимость, явления погоды, количество и форму облачности, нижнюю и верхнюю границу облачности).


Погода в Бахте - сегодня

Время (UTC), дата Ветер
(°,м/с) 
Видим.   Явления Облачность Т
(°С)
Тd
(°С)
f(%) Тe
(°С)
Pmin
(гПа)
dP
(гПа)
Po
(мм)
O2
(г/м3)
Тmin Tmax R s Состояние
почвы
21 21.11.17 тихо ()   н/о  слаб. снег  10/10 2000 м 
[As trans]
-20 -23.3 75 -20  1024.6  -0.6  763  334           
00 22.11.17 тихо ()   н/о  {снег}  ясно 
-20.5 -23.8 75 -21  1025  0.4  764  334  -22.8    0.4  34  равномерный
сухой снег
100% 
03 22.11.17 тихо ()   20000 м    3/0 верхняя 
[Ci fib]
-21.3 -25.3 70 -21  1026.7  1.7  765  336           
06 22.11.17 тихо ()   20000 м    3/0 верхняя 
[Ci fib]
-19.5 -23.6 70 -20  1028.9  2.2  767  334           
09 22.11.17 тихо ()   20000 м    3/0 верхняя 
[Ci sp]
-19.3 -24.2 65 -19  1030  1.1  767  334           
12 22.11.17 тихо ()   н/о    4/0 верхняя 
[Ci sp]
-20.7 -24.7 70 -21  1032  1.9  769  337    -19.3       
15 22.11.17 тихо ()   н/о    3/0 верхняя 
[Ci sp]
-23 -27 70 -23  1032.6  0.5  769  340           
18 22.11.17 тихо ()   н/о    4/0 верхняя 
[Ci sp]
-23.6 -27.6 70 -24  1032.7  0.1  769  341           
21 22.11.17 тихо ()   н/о    10/0 верхняя 
[Cs]
-23.8 -27.7 70 -24  1032.4  -0.3  769  341           
00 23.11.17 тихо ()   н/о    10/0 средняя 
[As trans]
-23.1 -27.2 69 -23  1031.5  -0.8  768  340  -23.8      34  равномерный
сухой снег
100% 
03 23.11.17 тихо ()   20000 м    10/10 2000 м 
[As trans]
-21.5 -34.8 29 -22  1030.9  -0.5  768  338           
06 23.11.17 тихо ()   20000 м  слаб. снег  10/10 2000 м 
[As trans]
-19.8 -23.1 75 -20  1030.2  -0.7  768  335           
09 23.11.17 тихо ()   10 км  слаб. снег  10/10 2000 м 
[Ns]
-18.5 -21.8 75 -19  1030  -0.2  767  333           
12 23.11.17 тихо ()   н/о  слаб. снег  10/10 2000 м 
[As trans]
-18.4 -21.7 75 -18  1023.7  -0.3  767  333    -18.4  0.6     
15 23.11.17 тихо ()   н/о  {снег}  4/0 верхняя 
[Ci sp]
-19.9 -24 70 -20  1029.4  -0.3  767  335           
18 23.11.17 020 (С) н/о  {снег}  6/0 верхняя 
[Ci sp]
-21.4 -25.4 70 -24  1029.4  767  337           
21 23.11.17 тихо ()   н/о    8/0 верхняя 
[Ci sp]
-22.1 -26.2 69 -22  1029.3  -0.1  767  338           
00 24.11.17 тихо ()   н/о    8/0 верхняя 
[Ci sp]
-22.8 -26.8 70 -23  1029.3  -0.1  767  339  -22.8      34  равномерный
сухой снег
100% 
03 24.11.17 тихо ()   20000 м    10/0 средняя 
[As trans]
-22 -26.1 69 -22  1028.4  -0.8  766  338           
06 24.11.17 тихо ()   10 км  слаб. снег  10/10 2000 м 
[Ns]
-19.6 -22.9 75 -20  1026.9  -1.5  765  334           
09 24.11.17 110 (В) 4000 м  слаб. снег  10/10 2000 м 
[Ns]
-18.4 -22.5 70 -21  1025.8  -1.1  764  332           
12 24.11.17 тихо ()   н/о  слаб. снег  10/10 2000 м 
[Ns]
-17.3 -20.7 75 -17  1022.9  -2.8  762  329    -17.3     
15 24.11.17 тихо ()   н/о  слаб. снег  10/10 2000 м 
[As trans]
-16.4 -19.8 75 -16  1018  -4.8  759  327           
18 24.11.17 140 (ЮВ) н/о  слаб. снег  10/10 2000 м 
[As trans]
-16.2 -19.6 75 -19  1010.7  -7.2  753  324           
21 24.11.17 180 (Ю) н/о  слаб. снег  10/10 2000 м 
[Ns]
-12.5 -16 75 -15  1006.9  -3.7  750  318           
Время (UTC), дата Ветер
(°,м/с) 
Видим.   Явления Облачность Т
(°С)
Тd
(°С)
f(%) Тe
(°С)
Pmin
(гПа)
dP
(гПа)
Po
(мм)
O2
(г/м3)
Тmin Tmax R s Состояние
почвы

Для получения пояснительной информации подведите курсор к названию столбца.

ПОГОДА в Бахте - архив

Всё, что Вы хотите узнать о погоде в Бахте - удобно и подробно!

Выберите нужную дату (начиная с 1 января 2015* года) и нажмите кнопку "Найти".
Будут отображены архивные сводки погоды по пункту Бахта, начиная с указанной даты.


Отображать данные в формате CSV (для использования в таблицах Excel)


Внимание! Наш архив погоды предназначен исключительно для личного некоммерческого использования в познавательных целях. Если Вам необходимы официальные справки о состоянии погоды (для производственных, юридических, коммерческих и т.п. целей), обращайтесь в органы Росгидромета.

*Примечание: данная дата относится к архиву по метеостанциям СССР (Россия, СНГ, Балтия).
Архив по метеостанциям Зарубежной Европы и Азии (кроме Китая) хранится 10 дней, по другим регионам земного шара (Китай, Африка, Америка, Австралия, Океания) - 1 день.

Бахта - район местоположения метеостанции


Название, широта, долгота, высота метеостанции:
Бахта 62.3°ш. 89.2°д. 58 м над ур. моря [Российская Федерация]

Дополнительная информация

В oтличие oт бoльшинства пoгoдных сайтoв мы публикуем пoдрoбную метеoинфoрмацию в детальнoм прoфессиoнальнoм фoрмате.

Характеристики температуры и влажнoсти вoздуха измеряются на высoте 2 м в тени вдали oт зданий и деревьев.
Скoрoсть ветра измеряется на высoте 10 м (на урoвне рoста челoвека скoрoсть ветра ниже в 1.5-2 раза). Если метеoстанция нахoдится в гoрoде или в лесу, тo скoрoсть ветра занижена на 2-4 м/с пo сравнению с oткрытым местoм. Скoрoсть ветра над акватoриями крупных рек и oзёр, а также на вершинах хoлмoв на 2-5 м/с выше, чем в oбычных услoвиях.
Атмoсфернoе давление в разных тoчках местнoсти мoжет значительнo oтличаться oт давления на метеoстанции, в зависимoсти oт услoвий рельефа (при пoдъёме на 10 м давление пoнижается примернo на 1 мм рт.ст.).